SCP
0 0 0 0 0 0 0 0 0 0 0 0 0 1 1 1 1 1 1 1 1 1 1 1 1 1 1 1 1 0 0 0 0 0 0 0 0 0 0 1 1 0 0
0 0 0 0 0 0 0 0 0 0 0 0 0 0 1 1 1 1 1 1 1 1 1 1 1 1 1 0 1 0 0 0 0 1 1 1 0 0 0 0 0 0 0
0 0 0 0 0 0 0 0 0 0 0 0 0 0 0 1 1 1 1 1 1 1 1 1 1 1 1 1 1 1 1 1 1 1 1 1 0 0 0 0 0 0 0
0 0 0 0 0 0 0 0 0 0 0 0 0 0 0 0 1 1 1 1 1 1 1 1 1 1 1 1 1 1 1 1 1 1 1 1 1 1 0 1 0 0 0
0 0 0 0 0 0 0 0 0 0 0 0 0 0 0 0 0 1 1 1 1 1 1 1 1 1 1 1 1 1 0 1 1 1 1 1 1 1 1 1 1 0 0
0 0 0 0 0 0 0 0 0 0 0 0 0 0 0 0 0 1 1 1 1 0 0 0 0 1 1 1 1 1 1 1 1 1 1 1 1 1 1 1 1 0 0
0 0 0 0 0 0 0 0 0 0 0 0 0 0 0 0 0 0 0 0 0 0 0 0 0 0 1 1 1 1 1 1 1 1 1 1 1 1 1 1 1 0 0
0 0 0 0 0 0 0 0 0 0 0 0 0 0 0 0 0 0 0 0 0 0 0 0 0 0 0 0 0 1 1 1 1 1 1 1 1 1 1 1 1 0 0
0 0 0 0 0 0 0 0 0 0 0 0 0 0 0 0 0 0 0 0 0 0 0 0 0 0 0 0 0 0 0 1 1 1 1 1 1 1 1 1 1 0 0
0 0 0 0 0 0 0 0 0 0 0 0 0 0 0 0 0 0 0 0 0 0 0 0 0 0 0 0 0 0 0 0 1 1 1 1 1 1 1 1 1 1 1
0 0 0 0 0 0 0 0 0 0 0 0 0 0 0 0 0 0 0 0 0 0 0 0 0 0 0 0 0 0 0 0 0 1 1 1 1 1 1 1 1 1 1
0 0 0 0 0 0 0 0 0 0 0 0 0 0 0 0 0 0 0 0 0 0 0 0 0 0 0 0 0 0 0 0 0 0 1 1 1 1 1 1 1 1 1
0 0 0 0 0 0 0 0 0 0 0 0 0 0 0 0 0 0 0 0 0 0 0 0 0 0 0 0 0 0 0 0 0 0 0 0 1 1 1 1 1 1 1
0 0 0 0 0 0 0 0 0 0 0 0 0 0 0 0 0 0 0 0 0 0 0 0 0 0 0 0 0 0 0 0 0 0 0 0 1 1 1 1 1 1 1
0 0 0 0 0 0 0 0 0 0 0 0 0 0 0 0 0 0 0 0 0 0 0 0 0 0 0 0 0 0 0 0 0 0 0 0 1 1 0 1 1 1 1
0 0 0 0 0 0 0 0 0 0 0 0 0 0 0 0 0 0 0 0 0 0 0 0 0 0 0 0 0 0 0 0 0 0 0 0 0 0 0 1 1 1 1
0 0 0 0 0 0 0 0 0 0 0 0 0 0 0 0 0 0 0 0 0 0 0 0 0 0 0 0 0 0 0 0 0 0 0 0 0 0 0 0 0 0 0
0 0 0 0 0 0 0 0 0 0 0 0 0 0 0 0 0 0 0 0 0 0 0 0 0 0 0 0 0 0 0 0 0 0 0 0 0 0 0 0 0 0 0
0 0 0 0 0 0 0 0 0 0 0 0 0 0 0 0 0 0 0 0 0 0 0 0 0 0 0 0 0 0 0 0 0 0 0 0 0 0 0 0 0 0 0
0 0 0 0 0 0 0 0 0 0 0 0 0 0 0 0 0 0 0 0 0 0 0 0 0 0 0 0 0 0 0 0 0 0 0 0 0 0 0 0 0 0 0
0 0 0 0 0 0 0 0 0 0 0 0 0 0 0 0 0 0 0 0 0 0 0 0 0 0 0 0 0 0 0 0 0 0 0 0 0 0 0 0 0 0 0
0 0 0 0 0 0 0 0 0 0 0 0 0 0 0 0 0 0 0 0 0 0 0 0 0 0 0 0 0 0 0 0 0 0 0 0 0 0 0 0 0 0 0
0 0 0 0 0 0 0 0 0 0 0 0 0 0 0 0 0 0 0 0 0 0 0 0 0 0 0 0 0 0 0 0 0 0 0 0 0 0 0 0 0 0 0
0 0 0 0 0 0 0 0 0 0 0 0 0 0 0 0 0 0 0 0 0 0 0 0 0 0 0 0 0 0 0 0 0 0 0 0 0 0 0 0 0 0 0
0 0 0 0 0 0 0 0 0 0 0 0 0 0 0 0 0 0 0 0 0 0 0 0 0 0 0 0 0 0 0 0 0 0 0 0 0 0 0 0 0 0 0
0 0 0 0 0 0 0 0 0 0 0 0 0 0 0 0 0 0 0 0 0 0 0 0 0 0 0 0 0 0 0 0 0 0 0 0 0 0 0 0 0 0 0
Wind_Speed
1 2 2 2 2 2 2 2 2 2 2 1 1 1 1 1 2 2 1 4 4 4 5 6 6 7 8 8 9 9 9 9 9 9 9 9 9 9 9 10 10 10 10
1 1 2 2 2 2 1 1 1 1 1 1 1 1 1 1 1 1 1 2 3 3 3 4 5 6 7 7 8 9 9 9 9 9 9 9 9 9 10 10 10 10 10
1 1 1 2 2 2 2 1 2 1 1 1 1 2 1 1 1 1 1 1 1 2 2 3 4 5 6 7 8 9 9 9 9 9 9 9 9 9 10 10 10 10 10
2 1 1 2 2 2 1 1 1 1 1 1 1 1 1 1 1 1 0 0 0 0 0 1 3 4 5 6 7 7 8 9 9 9 9 9 9 9 10 10 10 10 10
2 1 1 2 2 2 2 2 1 1 1 1 1 1 1 1 0 0 0 0 0 0 0 1 1 2 4 5 6 7 7 9 9 9 9 9 9 9 10 10 10 10 10
2 2 2 2 2 2 2 2 1 1 1 1 1 2 2 1 1 1 1 0 0 0 1 1 1 1 3 4 5 6 7 8 9 10 10 10 10 10 10 10 10 10 11
2 2 2 2 2 2 2 2 1 1 2 1 1 2 2 2 2 2 1 1 1 0 1 1 1 1 1 3 4 5 6 7 9 10 10 10 10 10 10 10 10 11 11
2 2 1 2 2 2 3 2 1 1 1 2 1 2 2 3 3 3 2 2 1 1 1 1 1 1 1 1 2 3 4 5 7 9 10 10 10 10 10 10 11 11 11
2 2 2 1 2 1 2 2 1 1 1 1 1 2 2 1 1 2 2 2 2 2 1 1 1 1 1 1 1 2 3 4 6 7 8 9 10 10 10 10 10 11 11
2 2 2 2 2 1 2 2 1 0 1 1 1 1 1 2 2 0 2 2 2 2 2 2 1 2 1 1 1 2 3 4 4 5 7 8 9 9 10 10 10 10 10
2 2 2 2 2 2 2 2 1 1 1 1 0 0 1 2 1 2 1 2 2 2 2 2 1 2 2 1 1 2 3 3 3 4 4 5 7 8 8 9 10 10 11
2 2 1 1 2 1 2 2 1 1 1 1 1 1 1 1 1 2 2 1 1 2 2 2 2 1 1 1 1 2 2 3 2 2 3 3 4 5 6 7 8 9 10
2 2 1 1 1 2 2 1 1 1 1 1 1 0 0 0 1 1 2 1 1 1 2 2 2 2 2 1 1 2 2 2 2 1 1 2 2 3 4 5 6 7 8
3 2 2 2 2 1 1 1 1 1 1 1 1 1 0 0 0 1 2 2 2 2 2 2 1 2 2 1 1 2 1 1 2 1 1 1 2 3 3 3 3 4 5
2 2 2 2 1 1 1 1 1 1 1 1 1 1 0 1 1 1 1 2 3 2 0 1 1 2 2 1 1 1 1 1 1 1 0 1 2 2 2 2 3 3 3
2 2 2 2 1 1 1 0 0 0 0 0 0 1 1 1 1 1 1 1 2 3 1 1 1 2 2 1 2 2 1 2 1 1 0 1 2 2 3 2 2 2 3
3 3 3 2 2 1 1 0 0 0 0 0 0 1 0 0 1 1 1 1 1 2 2 1 1 1 1 2 2 2 1 1 1 1 1 1 1 2 2 2 2 2 3
4 3 3 3 2 2 2 2 1 1 1 1 0 1 1 1 1 1 1 1 1 1 2 1 1 1 1 1 1 1 2 1 1 2 0 1 1 1 2 3 3 3 3
4 3 3 3 3 3 3 3 2 2 2 1 1 1 1 2 1 1 1 1 1 1 1 1 0 1 1 1 2 2 2 2 2 1 1 1 1 1 1 2 3 3 4
5 4 4 4 4 3 3 3 3 2 2 2 2 2 2 3 3 2 1 1 1 1 1 1 1 0 1 1 1 1 2 2 2 2 2 2 2 2 2 2 3 3 3
6 5 4 4 4 3 4 4 4 3 3 2 2 2 2 4 5 4 3 3 3 2 1 1 1 0 0 0 0 0 0 1 2 1 2 2 2 1 1 2 2 2 3
5 5 5 5 5 5 7 9 6 4 4 3 3 3 3 3 4 4 4 5 5 4 3 2 1 1 1 1 1 1 1 1 1 1 1 2 1 1 2 1 2 2 2
6 6 6 6 6 7 10 9 10 6 5 4 4 3 2 2 3 2 2 2 3 3 5 4 3 3 3 3 2 1 1 1 1 1 1 1 1 1 2 2 3 2 2
6 7 7 7 6 8 11 11 10 6 4 5 5 5 4 3 3 4 3 2 1 1 2 3 3 3 3 3 3 3 2 1 1 1 1 1 1 1 2 2 3 3 3
7 7 6 8 8 9 11 12 10 4 4 5 5 5 5 5 7 7 4 3 2 2 2 2 3 3 3 3 4 3 2 1 0 1 0 0 1 1 2 2 2 4 4
9 8 7 7 9 9 11 13 12 5 5 4 4 5 8 8 9 8 6 5 4 3 1 1 1 1 0 1 3 3 3 2 1 1 1 0 1 1 2 1 2 2 3
Wind_Direction
5 353 350 353 346 348 354 342 339 332 325 318 296 264 263 248 230 234 270 294 294 263 232 224 217 213 203 192 187 183 178 172 167 161 159 155 151 146 144 141 139 135 131
22 2 357 354 346 339 333 331 329 324 314 303 302 295 273 262 243 236 251 304 300 281 234 222 221 217 203 196 189 185 183 179 172 166 165 163 158 154 151 148 148 145 140
27 17 7 356 342 337 339 345 343 344 331 320 303 296 290 281 257 246 241 273 292 268 224 217 221 218 207 202 195 190 185 180 176 172 170 167 164 162 160 157 155 152 148
27 25 15 353 341 347 350 342 346 344 336 335 307 306 325 327 285 256 222 181 310 314 189 203 209 211 202 199 197 192 188 184 179 175 173 170 168 166 165 164 163 160 156
19 29 10 344 349 1 357 340 8 348 322 321 297 323 349 353 326 33 25 50 311 145 117 168 186 200 198 192 193 196 193 191 186 181 178 173 172 172 172 171 170 169 165
8 15 7 358 3 8 358 353 354 359 317 312 349 45 17 7 43 44 357 23 354 131 126 128 125 196 191 183 186 199 201 198 194 189 185 180 178 177 177 176 176 175 172
359 10 6 2 6 4 339 337 347 8 357 345 57 37 9 18 43 26 20 43 23 48 107 107 120 124 172 189 184 194 203 199 198 194 191 186 183 183 184 184 183 182 181
349 350 11 359 354 353 355 358 8 16 1 20 88 91 29 4 8 16 19 33 24 28 66 88 105 133 153 150 180 181 186 191 194 193 193 191 188 189 190 193 193 191 190
344 349 352 351 350 359 348 341 350 52 17 7 40 120 135 184 332 350 12 29 26 35 33 57 85 102 142 141 156 186 182 184 194 198 197 196 194 194 196 199 201 199 196
340 339 339 343 344 350 346 327 3 15 103 43 12 30 104 154 144 89 355 10 29 38 32 42 59 69 79 107 141 168 175 175 184 198 201 203 200 200 201 203 205 205 203
330 328 334 339 335 340 346 348 359 29 88 106 95 49 54 52 71 118 85 360 11 14 26 33 58 66 63 73 107 149 156 161 175 191 201 204 203 203 207 206 208 210 210
312 314 324 332 320 332 344 347 0 40 68 87 84 90 114 111 110 115 122 70 23 352 8 23 36 48 49 56 66 93 131 147 167 184 197 201 202 202 209 213 213 215 217
285 292 314 313 315 321 330 354 20 30 52 79 83 78 109 157 169 142 126 114 61 355 5 15 12 23 47 49 43 57 100 132 147 162 180 192 197 199 209 219 223 224 222
252 270 282 291 309 325 348 22 26 14 52 65 73 80 79 6 117 146 141 136 99 25 21 354 350 7 16 31 44 59 61 112 138 142 174 190 183 187 204 218 227 234 232
249 251 258 276 302 323 348 49 40 9 37 45 58 80 80 11 37 73 115 139 140 131 310 317 337 338 349 20 26 51 47 60 98 105 147 202 190 185 196 210 221 231 239
245 250 251 258 271 293 308 54 52 351 59 2 25 77 57 23 36 53 92 108 132 142 161 262 291 314 333 359 35 40 11 18 29 33 360 192 187 196 198 205 214 231 243
233 236 236 236 244 246 249 231 252 174 141 10 57 110 111 119 87 63 75 93 104 123 144 263 291 320 354 10 4 18 34 31 340 323 295 196 185 195 208 215 221 240 253
234 231 227 228 237 234 223 217 232 209 193 195 183 145 162 140 114 103 110 117 122 142 149 173 320 347 2 353 1 14 16 24 348 326 17 112 182 202 219 228 232 239 248
229 225 217 227 233 229 223 222 214 214 215 222 211 198 197 154 152 156 146 135 121 106 128 149 203 355 360 3 19 18 26 14 350 9 35 45 318 256 237 244 248 249 249
217 218 220 225 225 221 216 214 205 209 219 233 230 217 206 192 191 184 173 170 147 114 110 119 118 17 359 350 37 30 14 5 347 355 358 346 333 315 289 274 265 257 253
218 214 214 223 224 218 215 206 205 206 208 223 237 234 227 217 209 197 184 181 162 145 133 128 145 86 333 11 16 352 15 340 336 349 342 342 341 337 322 312 306 291 274
217 210 213 216 220 227 226 210 198 201 204 208 221 235 244 240 229 212 202 184 175 167 170 167 179 193 223 214 189 159 136 42 325 336 0 326 350 322 307 299 313 315 309
210 212 216 212 221 233 235 224 209 194 203 209 212 217 226 213 206 195 207 190 194 202 186 173 181 200 199 199 172 168 183 189 229 284 7 320 333 306 305 324 328 327 342
206 212 215 213 219 234 231 227 215 198 205 214 212 210 211 217 205 185 170 166 194 230 212 190 191 201 199 187 177 177 179 180 265 289 180 266 318 308 319 335 355 22 21
210 210 210 208 214 233 229 223 205 186 207 221 218 212 208 214 222 193 170 180 202 258 259 196 188 189 190 181 160 131 132 120 360 320 334 196 294 310 322 333 354 16 18
215 212 216 211 212 224 227 220 200 185 203 218 219 220 218 214 218 197 183 184 201 222 195 154 111 51 73 129 160 162 164 155 165 259 283 205 291 353 342 328 347 2 10